Location: *
(48.8667°N, 2.3331°E)
Time: 23:02:53
(UTC+00:00)

Cosmos 1825 - Pass Details

Date: 09 April 2020
Orbit: 502 x 509 km, 82.5° (Epoch: 03 June)

Event Time Altitude Azimuth Distance (km) Brightness Sun altitude
Rises 20:00:16 0° 6° (N) 2,630 6.1 -14.0°
Reaches altitude 10° 20:03:17 10° 32° (NNE) 1,737 4.9 -14.4°
Maximum altitude 20:05:23 14° 66° (ENE) 1,487 4.2 -14.7°
Enters shadow 20:05:36 14° 69° (ENE) 1,489 4.2 -14.7°
